DELTA 1 DEB, 7145

Orbit data source: Space-Track

DELTA 1 DEB, 7145 is space debris in LEO originally from a launch on Tue, 06 Nov 1973 UTC launched from the Air Force Western Test Range (AFWTR). Debris objects in space refer to the collection of defunct objects orbiting the Earth. Examples of debris include non-operational satellites, rocket bodies, and fragments generated from explosions, collisions, or faulty payload assembly.

Loading next visibility...
Identifier
7145, 1973-086DK
Orbit
LEO
Country
Flag of USUS
Related business
Manufacturer
Unknown
Mission
Spacecraft
Bus & Motor
Unknown
Mass
Unknown
Launch date (UTC)
1973-11-06 (53 years ago)
Launch vehicle
Unknown
Launch site
Air Force Western Test Range (AFWTR)
Object type
Payload
Rocket body
Debris
Shape & HBR
Unknown shape, 0.2 m
Radar Cross Section
Medium (>0.1 m² and <1 m²)

Expand to show TLE details & history
Last TLE update: 8 hours ago

TLE from 8 hours ago
0 DELTA 1 DEB
1  7145U 73086DK  26133.44637552 -.00000001  00000-0  46733-3 0  9990
2  7145 101.9351 301.5013 0318082 123.8009 264.2620 11.81589414264700
Epoch: 2026-05-13T10:42Z
TLE epoch observation values (Epoch: 2026-05-13T10:42:46.844Z)
Latitude
23.91359°
Longitude
-95.75277°
Altitude
1,800.877 km
Speed
6.97 km/s
True Right ascension
19h 44m 35s
True Declination
23° 48' 10"
Sunlit
Object was in daylight at epoch
Visualization orbit readout
Latitude
Unknown
Longitude
Unknown
Altitude
Unknown
Speed
Unknown
Apparent Right ascension
Unknown
Apparent Declination
Unknown
Sunlit
N/A
Visualization observer readout
Local Sidereal Time
02:56:36
Azimuth
Unknown
Elevation
Unknown
Doppler factor
Unknown
Orbital elements
Apogee altitude
2,020.925 km
Perigee altitude
1,503.078 km
Semi-major axis
8,140.138 km
Eccentricity
0.03181
Inclination
101.9351°
RAAN
301.5013°
Arg. of periapsis
123.8009°
True anomaly
260.65206°
Mean anomaly
264.262°
Eccentric anomaly
262.4553°
Mean motion
2.95526 °/min
Orbital period
121.82 mins
BSTAR
0.00046733
Loading maneuver chart data...
Computing Atmospheric mass density...
Loading historical data...
Loading historical data...
Loading historical data...
Loading historical data...
Loading historical data...
Loading historical data...
Loading historical data...

Documentation

Showing up to 5 results
|